User: anonymous   Login
Location: Rounton
(54.4000°N, 1.3500°W)
Time: 18:07:34
(UTC+01:00)
Language:

N. Korean satellite - Orbit

View from above orbital plane
View from above orbital plane
View from above satellite
View from above satellite

Ground track
Ground track

The orbit data is extracted from the following two-line orbital elements,

1 39026U 12072A   22269.95591701  .00015402  00000-0  38907-3 0  9992
2 39026  97.2752 259.7430 0029858 149.2835 211.0167 15.39431139544581
Epoch (UTC): 26 September 2022 22:56:31
Eccentricity: 0.0029858
inclination: 97.2752°
perigee height: 427 km
apogee height: 468 km
right ascension of ascending node: 259.7430°
argument of perigee: 149.2835°
revolutions per day: 15.39431139
mean anomaly at epoch: 211.0167°
orbit number at epoch: 54458

The dashed part of the orbit path shows where the satellite is in the earth's shadow,  

DLR